Regional Weather Roundup
Issued by NWS

Home | Current Version | Previous Version | Text Only | Print | Product List | Glossary Off
Versions: 1 2 3 4 5 6 7 8 9 10 11 12 13 14 15 16 17 18 19 20 21 22 23 24 25 26 27 28 29 30 31 32 33 34 35 36 37 38 39 40 41 42 43 44 45 46 47 48 49 50

000
ASUS43 KFSD 020510
RWRSD

WEATHER ROUNDUP FOR SOUTH DAKOTA
NATIONAL WEATHER SERVICE SIOUX FALLS SD
1200 AM CDT THU OCT 02 2014

NOTE: "FAIR" INDICATES FEW OR NO CLOUDS BELOW 12,000 FEET WITH NO
SIGNIFICANT WEATHER AND/OR OBSTRUCTIONS TO VISIBILITY.


SDZ001>005-009-010-012>017-020600-
NORTHWEST AND NORTH CENTRAL SOUTH DAKOTA

CITY           SKY/WX    TMP DP  RH WIND       PRES   REMARKS
BUFFALO          N/A     41  37  86 W8        29.89S
FAITH            N/A     50  44  80 W8        29.93S
MOBRIDGE       MOCLDY    51  47  86 NW7       29.87S
$$

SDZ012>016-024>037-041>051-057-063-072>074-020600-
SOUTHWEST AND SOUTH CENTRAL SOUTH DAKOTA

CITY           SKY/WX    TMP DP  RH WIND       PRES   REMARKS
RAPID CTY ARPT CLOUDY    44  41  89 NW5       29.97F
PIERRE         CLOUDY    53  47  79 NW7       29.91R
CUSTER         MOCLDY    38  34  85 W5        30.01S
ELLSWORTH AFB  MOCLDY    46  41  82 NW6       29.97S
PHILIP         CLOUDY    52  47  83 W3        29.96R
PINE RIDGE     CLOUDY    48  47  96 W3        30.00S
WINNER         LGT RAIN  54  49  83 NW6       29.93R
$$

SDZ004>011-016>023-039-040-020600-
NORTHEAST SOUTH DAKOTA

CITY           SKY/WX    TMP DP  RH WIND       PRES   REMARKS
ABERDEEN       PTCLDY    51  47  86 W7        29.86R
WATERTOWN      CLEAR     51  47  86 CALM      29.86R
SISSETON         N/A     47  46  97 W3        29.83R
$$

SDZ017-020-022-023-036>040-048>070-020600-
SOUTHEAST SOUTH DAKOTA

CITY           SKY/WX    TMP DP  RH WIND       PRES   REMARKS
SIOUX FALLS    CLEAR     58  51  78 N12       29.84R
HURON          CLEAR     49  45  86 NW3       29.88R
CHAMBERLAIN    CLOUDY    55  47  72 N6        29.91S
MITCHELL       CLEAR     53  47  79 NW6       29.89R
YANKTON        CLEAR     57  52  82 NW13      29.84R
$$

ABBREVIATIONS USED IN REMARKS
   TC - TEMPERATURE IN CELSIUS
  WCI - WIND CHILL INDEX
   HX - HEAT INDEX
  VSB - VISIBILITY




USA.gov is the U.S. government's official web portal to all federal, state and local government web resources and services.